Flag for Germany Weather past 2 weeks in Brühl (Rhineland), North Rhine-Westphalia, Germany

Now
43 °F

Overcast.


Feels Like: 39 °F
Forecast: 35 / 46 °F
Wind: 6 mph from Southwest

Location: Noervenich

Current Time: Apr 2, 2015 at 12:09:52 AM

Latest Report: Apr 1, 2015 at 10:00 PM


Visibility: 19 mi

Pressure: 30.09 "Hg

Humidity: 68%

Dew point: 33 °F

Location of Brühl (Rhineland)Location

Historic Weather in Brühl (Rhineland) — Graph

°F

Brühl (Rhineland) temperature yesterday

Maximum temperature yesterday: 46 °F (at 6:00 PM)
Minimum temperature yesterday: 39 °F (at 7:00 AM)
Average temperature yesterday: 42 °F

Past Weeks' High & Low Weather Summary

 TemperatureHumidityPressure
High60 °F (Mar 18, 3:00 PM)97% (Mar 19, 9:00 AM)30.40 "Hg (Mar 19, 9:00 AM)
Low30 °F (Mar 23, 7:00 AM)39% (Mar 26, 2:00 PM)29.32 "Hg (Mar 29, 6:00 PM)
Average44 °F78%29.98 "Hg
* Reported Mar 17 9:00 PM — Apr 1 10:00 PM, Brühl (Rhineland), Weather by CustomWeather, © 2015

Note: Actual official high and low records may vary slightly from our data, if they occured in-between our weather recording intervals... More about our weather records

Advertising

Brühl (Rhineland) weather history for previous 24 hours

 ConditionsComfort  
Time TempWeatherWind HumidityBarometerVisibility
10:00 PM
Wed, Apr 1
43 °FOvercast.6 mph68%30.09 "Hg19 mi
9:00 PM44 °FOvercast.7 mph63%30.11 "Hg19 mi
8:00 PM44 °FPartly sunny.5 mph55%30.11 "Hg19 mi
7:00 PM46 °FPartly sunny.7 mph48%30.12 "Hg19 mi
6:00 PM46 °FPartly sunny.12 mph53%30.10 "Hg12 mi
4:00 PM46 °FSprinkles. Partly sunny.9 mph56%30.11 "Hg6 mi
3:00 PM45 °FSprinkles. Overcast.9 mph69%30.10 "Hg9 mi
2:00 PM40 °FSleet. Overcast.8 mph79%30.11 "Hg4 mi
1:00 PM43 °FSprinkles. Overcast.9 mph66%30.09 "Hg6 mi
12:00 PM43 °FOvercast.10 mph64%30.08 "Hg12 mi
10:00 AM41 °FOvercast.9 mph72%30.05 "Hg12 mi
9:00 AM40 °FPartly sunny.8 mph75%30.03 "Hg12 mi
7:00 AM39 °FOvercast.8 mph75%29.98 "Hg19 mi
6:00 AM40 °FOvercast.9 mph71%29.96 "Hg25 mi
4:00 AM41 °FSprinkles. Overcast.8 mph67%29.92 "Hg19 mi
3:00 AM41 °FSprinkles. Overcast.9 mph71%29.90 "Hg12 mi
2:00 AM41 °FPassing clouds.9 mph70%29.89 "Hg25 mi
1:00 AM41 °FOvercast.7 mph79%29.88 "Hg25 mi
12:00 AM40 °FPassing clouds.8 mph79%29.86 "Hg25 mi
Weather by CustomWeather, © 2015

See weather overviewHow to use our weather pages